This is the latest recevied weather packets stored in our database for station/object N1IJV-10. If no packets are shown the sender has not sent any weather packets the latest 10 day(s).
| Time | Temp. | Humidity | Pressure | Rain* | Wind** | Luminosity | Snow |
|---|---|---|---|---|---|---|---|
| 1778119857 | 6.11° C | 64% | 1014.7 hPa | 0 mm | - | 0 W/m² | - |
| 1778119556 | 6.67° C | 64% | 1014.6 hPa | 0 mm | - | 0 W/m² | - |
| 1778119252 | 6.67° C | 62% | 1014.4 hPa | 0 mm | - | 0 W/m² | - |
| 1778118950 | 7.22° C | 60% | 1014.6 hPa | 0 mm | - | 0 W/m² | - |
| 1778118647 | 7.22° C | 59% | 1014.4 hPa | 0 mm | - | 0 W/m² | - |
| 1778118344 | 7.78° C | 57% | 1014.3 hPa | 0 mm | - | 0 W/m² | - |
| 1778118039 | 7.78° C | 55% | 1014.4 hPa | 0 mm | - | 0 W/m² | - |
| 1778117737 | 7.78° C | 55% | 1014.4 hPa | 0 mm | - | 0 W/m² | - |
| 1778117434 | 8.33° C | 53% | 1014.4 hPa | 0 mm | - | 0 W/m² | - |
| 1778117131 | 8.33° C | 55% | 1014.3 hPa | 0 mm | - | 0 W/m² | - |
| 1778116827 | 8.33° C | 53% | 1014.1 hPa | 0 mm | - | 0 W/m² | - |
| 1778116525 | 8.33° C | 52% | 1014.4 hPa | 0 mm | - | 0 W/m² | - |
| 1778116220 | 8.33° C | 53% | 1014.6 hPa | 0 mm | - | 0 W/m² | - |
| 1778115915 | 8.89° C | 53% | 1014.4 hPa | 0 mm | - | 0 W/m² | - |
| 1778115612 | 8.89° C | 52% | 1014.3 hPa | 0 mm | - | 0 W/m² | - |
| 1778115309 | 8.89° C | 52% | 1014.1 hPa | 0 mm | - | 1 W/m² | - |
| 1778115005 | 8.89° C | 51% | 1014.3 hPa | 0 mm | - | 2 W/m² | - |
| 1778114703 | 8.89° C | 52% | 1014.2 hPa | 0 mm | - | 3 W/m² | - |
| 1778114400 | 9.44° C | 51% | 1014.1 hPa | 0 mm | - | 5 W/m² | - |
| 1778114095 | 9.44° C | 48% | 1014.1 hPa | 0 mm | - | 7 W/m² | - |
| 1778113790 | 9.44° C | 50% | 1014.1 hPa | 0 mm | - | 9 W/m² | - |
| 1778113487 | 10° C | 47% | 1014 hPa | 0 mm | - | 11 W/m² | - |
| 1778113184 | 10° C | 48% | 1014.2 hPa | 0 mm | - | 15 W/m² | - |
| 1778112880 | 10° C | 48% | 1013.9 hPa | 0 mm | - | 18 W/m² | - |
| 1778112578 | 10° C | 48% | 1013.9 hPa | 0 mm | - | 20 W/m² | - |
* Rain latest hour (hover to see other rain measurements)
** Current wind speed in m/s (hover to see current wind gust speed)